THY7LB LTAC-LTCU

Flight info

Callsign THY7LB
Flight time 1h 4m
Altitude 37000
Route GOBIT UG8 MARTI UL614 EZS UW310 ROTKU
Aircraft A320/M-SDE3FGHIRWY/LB1

Departure

Time 2026-04-22 10:25
Airport Esenboğa International Airport (LTAC)

Arrival

Time 2026-04-22 11:30
Airport Bingöl Airport (LTCU)
Time Latitude Longitude Altitude Speed Heading
2026-04-22 10:10 40.11917 32.99294 3134 ft 0 kts 344°
2026-04-22 10:14 40.11912 32.99295 3134 ft 4 kts 343°
2026-04-22 10:15 40.11886 32.99306 3134 ft 4 kts 338°
2026-04-22 10:15 40.11862 32.99322 3134 ft 4 kts 325°
2026-04-22 10:15 40.11844 32.99344 3134 ft 4 kts 287°
2026-04-22 10:15 40.11843 32.99362 3134 ft 1 kts 255°
2026-04-22 10:16 40.11843 32.99365 3134 ft 0 kts 255°
2026-04-22 10:18 40.11841 32.99351 3134 ft 3 kts 255°
2026-04-22 10:18 40.11834 32.99316 3134 ft 5 kts 255°
2026-04-22 10:18 40.11823 32.99264 3134 ft 7 kts 255°
2026-04-22 10:18 40.11805 32.99197 3134 ft 9 kts 245°
2026-04-22 10:19 40.11778 32.99118 3134 ft 10 kts 259°
2026-04-22 10:19 40.11815 32.99040 3134 ft 11 kts 335°
2026-04-22 10:19 40.11890 32.99082 3134 ft 13 kts 37°
2026-04-22 10:19 40.11968 32.99157 3134 ft 15 kts 36°
2026-04-22 10:20 40.12055 32.99239 3134 ft 16 kts 36°
2026-04-22 10:20 40.12151 32.99330 3134 ft 18 kts 36°
2026-04-22 10:20 40.12254 32.99429 3134 ft 19 kts 38°
2026-04-22 10:20 40.12363 32.99536 3134 ft 20 kts 36°
2026-04-22 10:21 40.12480 32.99647 3134 ft 21 kts 36°
2026-04-22 10:21 40.12604 32.99764 3134 ft 23 kts 36°
2026-04-22 10:21 40.12734 32.99888 3134 ft 24 kts 36°
2026-04-22 10:21 40.12872 33.00021 3134 ft 25 kts 36°
2026-04-22 10:22 40.13016 33.00160 3134 ft 26 kts 36°
2026-04-22 10:22 40.13168 33.00304 3134 ft 27 kts 36°
2026-04-22 10:22 40.13326 33.00453 3135 ft 29 kts 36°
2026-04-22 10:22 40.13489 33.00612 3135 ft 30 kts 38°
2026-04-22 10:23 40.13661 33.00777 3134 ft 32 kts 36°
2026-04-22 10:23 40.13843 33.00950 3134 ft 33 kts 36°
2026-04-22 10:23 40.14011 33.01077 3135 ft 24 kts
2026-04-22 10:23 40.14115 33.00935 3136 ft 23 kts 291°
2026-04-22 10:24 40.14199 33.00777 3134 ft 13 kts 303°
2026-04-22 10:24 40.14191 33.00671 3133 ft 14 kts 224°
2026-04-22 10:24 40.14165 33.00646 3132 ft 6 kts 214°
2026-04-22 10:24 40.13970 33.00459 3132 ft 68 kts 217°
2026-04-22 10:25 40.13429 32.99941 3134 ft 122 kts 216°
2026-04-22 10:25 40.12667 32.99170 3392 ft 141 kts 221°
2026-04-22 10:25 40.11878 32.98414 4020 ft 143 kts 221°
2026-04-22 10:25 40.11060 32.97648 4676 ft 146 kts 220°
2026-04-22 10:26 40.10207 32.96875 5146 ft 158 kts 218°
2026-04-22 10:26 40.09253 32.95993 5463 ft 178 kts 214°
2026-04-22 10:26 40.07979 32.95569 5787 ft 209 kts 181°
2026-04-22 10:26 40.06543 32.96400 5978 ft 255 kts 141°
2026-04-22 10:27 40.05482 32.98472 6475 ft 286 kts 119°
2026-04-22 10:27 40.04786 33.00929 7191 ft 298 kts 111°
2026-04-22 10:27 40.04182 33.03539 8030 ft 303 kts 110°
2026-04-22 10:27 40.03551 33.06190 8864 ft 309 kts 111°
2026-04-22 10:28 40.02854 33.08865 9720 ft 314 kts 112°
2026-04-22 10:28 40.02088 33.11570 10311 ft 328 kts 114°
2026-04-22 10:28 40.01224 33.14436 10610 ft 348 kts 115°
2026-04-22 10:28 40.00303 33.17395 11236 ft 356 kts 115°
2026-04-22 10:29 39.99352 33.20397 11999 ft 360 kts 115°
2026-04-22 10:29 39.98386 33.23433 12739 ft 363 kts 115°
2026-04-22 10:29 39.97417 33.26490 13556 ft 365 kts 115°
2026-04-22 10:29 39.96448 33.29558 14235 ft 368 kts 115°
2026-04-22 10:30 39.95465 33.32666 14918 ft 372 kts 115°
2026-04-22 10:30 39.94475 33.35802 15599 ft 376 kts 115°
2026-04-22 10:30 39.93476 33.38974 16210 ft 381 kts 115°
2026-04-22 10:30 39.92463 33.42182 16832 ft 385 kts 115°
2026-04-22 10:31 39.91437 33.45423 17442 ft 389 kts 114°
2026-04-22 10:31 39.90399 33.48694 18103 ft 392 kts 114°
2026-04-22 10:31 39.89351 33.51997 18678 ft 396 kts 114°
2026-04-22 10:31 39.88290 33.55331 19255 ft 400 kts 114°
2026-04-22 10:32 39.87218 33.58693 19831 ft 404 kts 114°
2026-04-22 10:32 39.86135 33.62088 20396 ft 408 kts 114°
2026-04-22 10:32 39.85041 33.65511 20946 ft 412 kts 114°
2026-04-22 10:32 39.83936 33.68972 21497 ft 416 kts 114°
2026-04-22 10:33 39.82821 33.72460 22019 ft 420 kts 114°
2026-04-22 10:33 39.81694 33.75982 22571 ft 424 kts 114°
2026-04-22 10:33 39.80557 33.79528 23131 ft 427 kts 114°
2026-04-22 10:33 39.79405 33.83107 23665 ft 430 kts 114°
2026-04-22 10:34 39.78246 33.86705 24115 ft 433 kts 114°
2026-04-22 10:34 39.77090 33.90330 24571 ft 436 kts 113°
2026-04-22 10:34 39.76005 33.93982 25018 ft 439 kts 111°
2026-04-22 10:34 39.74956 33.97720 25464 ft 442 kts 111°
2026-04-22 10:35 39.73923 34.01507 25906 ft 445 kts 111°
2026-04-22 10:35 39.72889 34.05307 26331 ft 448 kts 111°
2026-04-22 10:35 39.71839 34.09124 26780 ft 450 kts 111°
2026-04-22 10:35 39.70766 34.12956 27204 ft 453 kts 112°
2026-04-22 10:36 39.69673 34.16804 27608 ft 455 kts 112°
2026-04-22 10:36 39.68568 34.20665 28005 ft 458 kts 112°
2026-04-22 10:36 39.67450 34.24549 28406 ft 460 kts 112°
2026-04-22 10:36 39.66324 34.28453 28794 ft 463 kts 112°
2026-04-22 10:37 39.65194 34.32379 29156 ft 466 kts 112°
2026-04-22 10:37 39.62913 34.40298 29930 ft 471 kts 112°
2026-04-22 10:37 39.61760 34.44293 30272 ft 474 kts 112°
2026-04-22 10:38 39.60604 34.48302 30604 ft 476 kts 112°
2026-04-22 10:38 39.59443 34.52333 30944 ft 478 kts 112°
2026-04-22 10:38 39.58674 34.55009 31159 ft 479 kts 112°
2026-04-22 10:38 39.57505 34.59069 31484 ft 481 kts 112°
2026-04-22 10:39 39.56337 34.63123 31961 ft 479 kts 113°
2026-04-22 10:39 39.55167 34.67163 32441 ft 477 kts 113°
2026-04-22 10:39 39.53997 34.71186 32930 ft 476 kts 113°
2026-04-22 10:39 39.52828 34.75191 33407 ft 475 kts 113°
2026-04-22 10:40 39.51660 34.79184 33891 ft 473 kts 113°
2026-04-22 10:40 39.50495 34.83168 34296 ft 472 kts 114°
2026-04-22 10:40 39.49329 34.87145 34634 ft 472 kts 113°
2026-04-22 10:40 39.48163 34.91125 34973 ft 473 kts 114°
2026-04-22 10:41 39.46997 34.95099 35294 ft 473 kts 114°
2026-04-22 10:41 39.45828 34.99078 35616 ft 473 kts 114°
2026-04-22 10:41 39.44657 35.03053 35920 ft 473 kts 114°
2026-04-22 10:41 39.43484 35.07034 36236 ft 474 kts 114°
2026-04-22 10:42 39.42310 35.11018 36538 ft 474 kts 114°
2026-04-22 10:42 39.41133 35.15001 36825 ft 474 kts 114°
2026-04-22 10:42 39.39956 35.18983 36953 ft 475 kts 114°
2026-04-22 10:43 39.37629 35.26964 36966 ft 474 kts 113°
2026-04-22 10:43 39.35333 35.34943 36971 ft 474 kts 113°
2026-04-22 10:44 39.33033 35.42917 36968 ft 474 kts 113°
2026-04-22 10:44 39.30727 35.50845 36974 ft 474 kts 114°
2026-04-22 10:45 39.28387 35.58813 36982 ft 475 kts 114°
2026-04-22 10:45 39.26041 35.66782 36978 ft 475 kts 114°
2026-04-22 10:46 39.23695 35.74762 36978 ft 476 kts 114°
2026-04-22 10:46 39.21349 35.82740 36974 ft 476 kts 114°
2026-04-22 10:47 39.18993 35.90718 36979 ft 477 kts 114°
2026-04-22 10:47 39.16610 35.98698 36983 ft 477 kts 114°
2026-04-22 10:48 39.14854 36.06949 36983 ft 481 kts 101°
2026-04-22 10:48 39.13802 36.15465 36979 ft 482 kts 101°
2026-04-22 10:49 39.12719 36.23979 36971 ft 482 kts 101°
2026-04-22 10:49 39.11626 36.32499 36980 ft 482 kts 101°
2026-04-22 10:50 39.10524 36.41013 36981 ft 482 kts 101°
2026-04-22 10:50 39.09422 36.49531 36980 ft 482 kts 101°
2026-04-22 10:51 39.08325 36.58044 36964 ft 482 kts 101°
2026-04-22 10:51 39.07215 36.66570 36965 ft 483 kts 102°
2026-04-22 10:52 39.06101 36.75036 36965 ft 483 kts 102°
2026-04-22 10:52 39.04973 36.83567 36974 ft 484 kts 102°
2026-04-22 10:53 39.03831 36.92103 36967 ft 484 kts 102°
2026-04-22 10:53 39.02686 37.00625 36973 ft 484 kts 102°
2026-04-22 10:54 39.01536 37.09155 36982 ft 484 kts 102°
2026-04-22 10:54 39.00384 37.17683 36978 ft 484 kts 102°
2026-04-22 10:55 38.99228 37.26204 36973 ft 484 kts 102°
2026-04-22 10:55 38.98062 37.34720 36986 ft 483 kts 102°
2026-04-22 10:56 38.96896 37.43222 36988 ft 483 kts 102°
2026-04-22 10:56 38.95717 37.51724 36994 ft 483 kts 102°
2026-04-22 10:57 38.94531 37.60213 36981 ft 483 kts 102°
2026-04-22 10:57 38.93345 37.68701 37002 ft 483 kts 102°
2026-04-22 10:58 38.92149 37.77191 36998 ft 483 kts 102°
2026-04-22 10:58 38.90944 37.85677 36977 ft 483 kts 102°
2026-04-22 10:59 38.89737 37.94153 36985 ft 483 kts 102°
2026-04-22 10:59 38.88531 38.02635 36989 ft 483 kts 103°
2026-04-22 11:00 38.87318 38.11112 36989 ft 483 kts 103°
2026-04-22 11:00 38.86089 38.19585 36982 ft 483 kts 103°
2026-04-22 11:01 38.84849 38.28046 36988 ft 483 kts 103°
2026-04-22 11:01 38.83607 38.36514 36986 ft 483 kts 103°
2026-04-22 11:02 38.82368 38.44987 37005 ft 483 kts 103°
2026-04-22 11:02 38.81115 38.53458 36996 ft 483 kts 103°
2026-04-22 11:03 38.79865 38.61872 36809 ft 483 kts 103°
2026-04-22 11:03 38.79236 38.66097 36552 ft 482 kts 103°
2026-04-22 11:03 38.78604 38.70319 36291 ft 482 kts 103°
2026-04-22 11:03 38.77971 38.74535 36042 ft 481 kts 103°
2026-04-22 11:04 38.77340 38.78742 35789 ft 480 kts 103°
2026-04-22 11:04 38.76710 38.82930 35528 ft 478 kts 103°
2026-04-22 11:04 38.76080 38.87100 35283 ft 476 kts 103°
2026-04-22 11:04 38.75452 38.91251 35043 ft 473 kts 103°
2026-04-22 11:05 38.74833 38.95362 34633 ft 469 kts 103°
2026-04-22 11:05 38.74223 38.99469 34173 ft 467 kts 103°
2026-04-22 11:05 38.73623 39.03547 33652 ft 465 kts 103°
2026-04-22 11:05 38.73031 39.07607 33186 ft 462 kts 102°
2026-04-22 11:06 38.72441 39.11634 32713 ft 459 kts 102°
2026-04-22 11:06 38.71848 39.15641 32258 ft 456 kts 103°
2026-04-22 11:06 38.71285 39.19633 31794 ft 454 kts 98°
2026-04-22 11:06 38.71114 39.23661 31344 ft 453 kts 88°
2026-04-22 11:07 38.71434 39.27663 30899 ft 451 kts 81°
2026-04-22 11:07 38.71909 39.31621 30466 ft 449 kts 81°
2026-04-22 11:07 38.72380 39.35559 30016 ft 447 kts 81°
2026-04-22 11:07 38.72844 39.39486 29553 ft 444 kts 81°
2026-04-22 11:08 38.73300 39.43381 29144 ft 441 kts 81°
2026-04-22 11:08 38.73748 39.47245 28742 ft 437 kts 81°
2026-04-22 11:08 38.74191 39.51086 28337 ft 434 kts 81°
2026-04-22 11:08 38.74628 39.54902 27930 ft 432 kts 81°
2026-04-22 11:09 38.75062 39.58702 27527 ft 430 kts 81°
2026-04-22 11:09 38.75494 39.62483 27120 ft 428 kts 81°
2026-04-22 11:09 38.75925 39.66251 26702 ft 427 kts 81°
2026-04-22 11:09 38.76356 39.70010 26286 ft 426 kts 81°
2026-04-22 11:10 38.76785 39.73760 25843 ft 425 kts 81°
2026-04-22 11:10 38.77213 39.77508 25409 ft 424 kts 81°
2026-04-22 11:10 38.77633 39.81202 24962 ft 424 kts 81°
2026-04-22 11:10 38.78062 39.84985 24578 ft 421 kts 81°
2026-04-22 11:11 38.78479 39.88690 24099 ft 421 kts 81°
2026-04-22 11:11 38.78888 39.92382 23850 ft 415 kts 82°
2026-04-22 11:11 38.79288 39.96010 23163 ft 409 kts 82°
2026-04-22 11:11 38.79697 39.99570 22644 ft 395 kts 81°
2026-04-22 11:12 38.80110 40.02929 22241 ft 380 kts 80°
2026-04-22 11:12 38.80537 40.06269 21840 ft 378 kts 80°
2026-04-22 11:12 38.80967 40.09586 21433 ft 376 kts 80°
2026-04-22 11:12 38.81391 40.12888 21013 ft 375 kts 80°
2026-04-22 11:13 38.81807 40.16177 20597 ft 373 kts 80°
2026-04-22 11:13 38.82199 40.19465 20181 ft 372 kts 82°
2026-04-22 11:13 38.82516 40.22747 19750 ft 370 kts 83°
2026-04-22 11:13 38.82784 40.26018 19332 ft 369 kts 84°
2026-04-22 11:14 38.83031 40.29300 18904 ft 369 kts 84°
2026-04-22 11:14 38.83279 40.32576 18475 ft 368 kts 84°
2026-04-22 11:14 38.83536 40.35841 18012 ft 367 kts 84°
2026-04-22 11:14 38.83802 40.39089 17585 ft 365 kts 84°
2026-04-22 11:15 38.84071 40.42312 17153 ft 362 kts 84°
2026-04-22 11:15 38.84339 40.45516 16737 ft 360 kts 84°
2026-04-22 11:15 38.84605 40.48693 16318 ft 357 kts 84°
2026-04-22 11:15 38.84870 40.51850 15907 ft 354 kts 84°
2026-04-22 11:16 38.85416 40.54901 15487 ft 351 kts 65°
2026-04-22 11:16 38.86812 40.57415 15096 ft 345 kts 39°
2026-04-22 11:16 38.88834 40.58957 14740 ft 335 kts 15°
2026-04-22 11:16 38.91099 40.59344 14399 ft 325 kts 352°
2026-04-22 11:17 38.93238 40.58611 14054 ft 315 kts 329°
2026-04-22 11:17 38.94960 40.56977 13735 ft 304 kts 308°
2026-04-22 11:17 38.96082 40.54741 13410 ft 294 kts 288°
2026-04-22 11:17 38.96516 40.52227 13122 ft 285 kts 269°
2026-04-22 11:18 38.96267 40.49744 12828 ft 278 kts 251°
2026-04-22 11:18 38.95634 40.47410 12557 ft 275 kts 249°
2026-04-22 11:18 38.95151 40.45054 12275 ft 273 kts 259°
2026-04-22 11:18 38.95052 40.42627 11997 ft 272 kts 270°
2026-04-22 11:19 38.95331 40.40232 11723 ft 271 kts 281°
2026-04-22 11:19 38.95971 40.37956 11447 ft 272 kts 293°
2026-04-22 11:19 38.96911 40.35853 11243 ft 268 kts 297°
2026-04-22 11:19 38.97848 40.33863 11179 ft 258 kts 298°
2026-04-22 11:20 38.98756 40.31913 11069 ft 250 kts 297°
2026-04-22 11:20 38.99755 40.30131 10975 ft 245 kts 311°
2026-04-22 11:20 39.01105 40.28831 10878 ft 242 kts 329°
2026-04-22 11:20 39.02674 40.28124 10770 ft 237 kts 342°
2026-04-22 11:21 39.04243 40.27645 10703 ft 228 kts 342°
2026-04-22 11:21 39.05777 40.27171 10570 ft 226 kts 342°
2026-04-22 11:21 39.07241 40.26529 10474 ft 219 kts 322°
2026-04-22 11:21 39.08233 40.25145 10369 ft 208 kts 291°
2026-04-22 11:22 39.08522 40.23376 10283 ft 201 kts 263°
2026-04-22 11:22 39.08112 40.21698 10193 ft 197 kts 236°
2026-04-22 11:22 39.07127 40.20491 10105 ft 199 kts 210°
2026-04-22 11:22 39.05790 40.20038 10008 ft 202 kts 183°
2026-04-22 11:23 39.04422 40.20502 9914 ft 210 kts 153°
2026-04-22 11:23 39.03388 40.21853 9817 ft 218 kts 127°
2026-04-22 11:23 39.02612 40.23539 9702 ft 219 kts 124°
2026-04-22 11:23 39.02106 40.24663 9646 ft 219 kts 124°
2026-04-22 11:24 39.01333 40.26356 9456 ft 220 kts 124°
2026-04-22 11:24 39.00559 40.28038 9141 ft 218 kts 126°
2026-04-22 11:24 38.99787 40.29712 8851 ft 217 kts 125°
2026-04-22 11:24 38.99020 40.31376 8571 ft 216 kts 125°
2026-04-22 11:25 38.98253 40.33039 8299 ft 216 kts 124°
2026-04-22 11:25 38.97486 40.34699 8013 ft 215 kts 124°
2026-04-22 11:25 38.96722 40.36354 7803 ft 214 kts 125°
2026-04-22 11:25 38.95953 40.38017 7618 ft 217 kts 125°
2026-04-22 11:26 38.95180 40.39689 7318 ft 219 kts 125°
2026-04-22 11:26 38.94402 40.41370 6984 ft 218 kts 126°
2026-04-22 11:26 38.93632 40.43034 6664 ft 215 kts 125°
2026-04-22 11:26 38.92889 40.44643 6325 ft 204 kts 125°
2026-04-22 11:27 38.92180 40.46175 5995 ft 193 kts 125°
2026-04-22 11:27 38.91506 40.47628 5680 ft 186 kts 127°
2026-04-22 11:27 38.90879 40.48985 5404 ft 167 kts 127°
2026-04-22 11:27 38.90305 40.50221 5168 ft 157 kts 127°
2026-04-22 11:28 38.89751 40.51411 4958 ft 154 kts 127°
2026-04-22 11:28 38.89206 40.52583 4744 ft 151 kts 123°
2026-04-22 11:28 38.88668 40.53740 4513 ft 151 kts 126°
2026-04-22 11:28 38.88129 40.54899 4290 ft 152 kts 125°
2026-04-22 11:29 38.87590 40.56071 4042 ft 152 kts 127°
2026-04-22 11:29 38.87049 40.57211 3804 ft 147 kts 127°
2026-04-22 11:29 38.86538 40.58332 3579 ft 145 kts 127°
2026-04-22 11:29 38.86068 40.59328 3550 ft 101 kts 120°
2026-04-22 11:30 38.85855 40.59784 3552 ft 32 kts 121°
2026-04-22 11:30 38.85741 40.60036 3546 ft 33 kts 120°
2026-04-22 11:30 38.85620 40.60293 3544 ft 34 kts 120°
2026-04-22 11:30 38.85553 40.60473 3546 ft 16 kts 94°
2026-04-22 11:31 38.85527 40.60565 3548 ft 10 kts 192°
2026-04-22 11:31 38.85527 40.60493 3549 ft 10 kts 302°
2026-04-22 11:31 38.85567 40.60410 3546 ft 12 kts 302°
2026-04-22 11:31 38.85618 40.60302 3545 ft 16 kts 301°
2026-04-22 11:32 38.85675 40.60168 3545 ft 17 kts 298°
2026-04-22 11:32 38.85737 40.60029 3547 ft 18 kts 310°
2026-04-22 11:32 38.85812 40.59893 3550 ft 19 kts 301°
2026-04-22 11:32 38.85877 40.59749 3552 ft 19 kts 299°
2026-04-22 11:33 38.85949 40.59589 3557 ft 22 kts 302°
2026-04-22 11:33 38.86029 40.59417 3557 ft 24 kts 300°
2026-04-22 11:33 38.86079 40.59266 3551 ft 14 kts 267°
2026-04-22 11:33 38.86023 40.59181 3559 ft 13 kts 212°
2026-04-22 11:34 38.85969 40.59150 3550 ft 0 kts 180°
2026-04-22 11:34 38.85954 40.59161 3550 ft 4 kts 141°
2026-04-22 11:34 38.85935 40.59198 3551 ft 4 kts 123°
2026-04-22 11:34 38.85920 40.59205 3550 ft 2 kts 209°
2026-04-22 11:35 38.85912 40.59190 3552 ft 2 kts 232°
2026-04-22 11:35 38.85907 40.59176 3551 ft 2 kts 246°
2026-04-22 11:35 38.85905 40.59169 3550 ft 0 kts 250°